Simultaneous Nadir Overpasses (SNOs) Predictions

Prediction of SNOs between AQUA and GOES-15 Satellite Orbit:

Table of predicted SNOs for the next 14.0 days since TLE Epoch: 8/12/2023
Index Date Time (AQUA) AQUA Lat,Lon GOES-15 Lat,Lon Distance(km) Time Diff (sec)
1 08/13/2023 16:00:10 0.32, 148.06 0.42, 147.54 59.71 80
2 08/14/2023 04:21:02 -1.30, 143.00 -0.43, 146.96 451.51 80
3 08/16/2023 04:06:47 -0.11, 146.41 -0.42, 144.91 169.66 80
4 08/16/2023 16:27:29 1.09, 141.38 0.42, 144.43 346.98 80
5 08/18/2023 16:13:14 -0.08, 144.80 0.42, 142.37 275.07 80
6 08/19/2023 04:34:05 -0.88, 139.72 -0.42, 141.80 235.86 80
7 08/21/2023 04:19:49 0.33, 143.14 -0.42, 139.73 387.84 80
8 08/21/2023 16:40:32 0.64, 138.11 0.42, 139.24 128.14 80
9 08/23/2023 16:26:14 -0.49, 141.54 0.42, 137.18 495.71 80
10 08/24/2023 04:47:06 -0.44, 136.46 -0.42, 136.60 15.25 80
